YD2CLX-17 Weather Reports


time (UTC)temp
F
wind
direction
speed
knots
gust
knots
rain 1hr
in
rain 24hr
in
rain mn
in
humidity
%
barometer
mb
20260502220052 82 104 1.7 1.7 0.00 0.00 0.00 97 1010.0
20260502214553 82 104 1.7 1.7 0.00 0.00 0.00 97 1010.0
20260502213053 82 104 1.7 1.7 0.00 0.00 0.00 97 1010.0
20260502211553 82 111 1.7 1.7 0.00 0.00 0.00 97 1010.0
20260502210053 82 111 1.7 1.7 0.00 0.00 0.00 97 1010.0
20260502204553 82 111 1.7 1.7 0.00 0.00 0.00 97 1010.0
20260502203053 82 111 1.7 1.7 0.00 0.00 0.00 97 1010.0
20260502201552 82 108 1.7 1.7 0.00 0.00 0.00 97 1010.0
20260502200053 82 108 1.7 1.7 0.00 0.00 0.00 97 1010.0
20260502194552 82 108 1.7 1.7 0.00 0.00 0.00 97 1010.0
20260502193052 82 108 1.7 1.7 0.00 0.00 0.00 97 1010.0
20260502191553 82 128 1.7 1.7 0.00 0.00 0.00 97 1010.0
20260502190053 82 128 1.7 1.7 0.00 0.00 0.00 97 1010.0
20260502184553 83 128 1.7 1.7 0.00 0.00 0.00 97 1010.0
20260502183052 83 128 1.7 1.7 0.00 0.00 0.00 97 1010.0
20260502181552 82 120 0.9 0.9 0.00 0.00 0.00 97 1011.0
20260502163053 83 207 0.0 0.9 0.00 0.00 0.00 96 1011.0
20260502161552 83 351 0.0 0.9 0.00 0.00 0.00 96 1012.0
20260502151553 83 25 0.9 0.9 0.00 0.00 0.00 95 1012.0
20260502123052 84 261 0.9 0.0 0.00 0.00 0.00 95 1011.0
20260502121552 84 237 0.9 0.0 0.00 0.00 0.00 95 1010.0
20260502114552 84 252 0.9 0.9 0.00 0.00 0.00 94 1010.0
20260502113053 85 252 0.9 0.9 0.05 0.00 0.00 94 1010.0
20260502111552 83 231 1.7 2.6 0.00 0.00 0.00 92 1009.0
20260502110101 83 231 1.7 2.6 0.00 0.00 0.00 93 1009.0
20260502104600 83 231 1.7 2.6 0.00 0.00 0.00 92 1009.0
20260502103101 83 231 1.7 2.6 0.00 0.00 0.00 92 1009.0
20260502101559 84 209 2.6 3.5 0.00 0.00 0.00 89 1009.0
20260502100108 84 209 2.6 3.5 0.00 0.00 0.00 90 1009.0
20260502090117 84 188 0.9 1.7 0.00 0.00 0.00 87 1008.0
20260502070104 84 188 0.9 1.7 0.00 0.00 0.00 87 1009.0
20260502064600 84 188 0.9 1.7 0.00 0.00 0.00 87 1009.0
20260502063110 84 188 0.9 1.7 0.00 0.00 0.00 87 1009.0
20260502061600 84 188 0.9 1.7 0.00 0.00 0.00 87 1009.0
20260502054601 84 188 0.9 1.7 0.00 0.00 0.00 87 1009.0
20260502053102 84 188 0.9 1.7 0.00 0.00 0.00 87 1009.0
20260502051559 84 188 0.9 1.7 0.00 0.00 0.00 87 1010.0
20260502050105 84 188 0.9 1.7 0.00 0.00 0.00 87 1010.0
20260502044600 84 188 0.9 1.7 0.00 0.00 0.00 87 1010.0
20260502043104 84 188 0.9 1.7 0.00 0.00 0.00 87 1010.0
20260502041600 84 188 0.9 1.7 0.00 0.00 0.00 87 1011.0
20260502040104 84 188 0.9 1.7 0.00 0.00 0.00 87 1011.0
20260502034559 84 188 0.9 1.7 0.00 0.00 0.00 87 1011.0
20260502033101 84 188 0.9 1.7 0.00 0.00 0.00 87 1011.0
20260502031558 84 188 0.9 1.7 0.00 0.00 0.00 87 1011.0
20260502030103 84 188 0.9 1.7 0.00 0.00 0.00 87 1011.0
20260502024559 84 188 0.9 1.7 0.00 0.00 0.00 87 1011.0
20260502023059 84 188 0.9 1.7 0.00 0.00 0.00 87 1011.0
20260502021558 84 188 0.9 1.7 0.00 0.00 0.00 87 1011.0
20260502020100 84 188 0.9 1.7 0.00 0.00 0.00 87 1011.0
20260502014557 84 188 0.9 1.7 0.00 0.00 0.00 87 1011.0
20260502013059 84 188 0.9 1.7 0.00 0.00 0.00 87 1011.0
20260502011557 84 188 0.9 1.7 0.00 0.00 0.00 87 1011.0
20260502004558 84 188 0.9 1.7 0.00 0.00 0.00 87 1011.0
20260502003059 84 188 0.9 1.7 0.00 0.00 0.00 87 1011.0
20260502001557 82 88 1.7 2.6 0.00 0.00 0.00 92 1011.0
20260501234557 82 104 0.9 2.6 0.00 0.00 0.00 92 1011.0
20260501233058 82 104 0.9 2.6 0.00 0.00 0.00 92 1011.0
20260501231557 80 77 2.6 2.6 0.00 0.00 0.00 94 1011.0
20260501230026 80 77 2.6 2.6 0.00 0.00 0.00 95 1011.0
20260501224526 80 77 2.6 2.6 0.00 0.00 0.00 94 1011.0
20260501223026 80 77 2.6 2.6 0.00 0.00 0.00 95 1011.0
20260501221526 80 75 2.6 2.6 0.00 0.00 0.00 94 1011.0